North Adams, MA

9:26 AM EST on December 17, 2017 (GMT -0500)
Harriman And West

Weather History for KAQW - August, 2013

Change the Weather History Date:

Saturday, August 24, 2013

  Actual Average Record
Temperature  
Mean Temperature 60 °F -  
Max Temperature 75 °F 76 °F 87 °F (2007)
Min Temperature 44 °F 53 °F 42 °F (2003)
Degree Days  
Heating Degree Days 6    
Growing Degree Days 10 (Base 50)    
Moisture  
Dew Point 47 °F    
Average Humidity 80    
Maximum Humidity 100    
Minimum Humidity 37    
Precipitation  
Precipitation 0.00 in - - ()
Sea Level Pressure  
Sea Level Pressure 30.30 in    
Wind  
Wind Speed 0 mph (South)    
Max Wind Speed 6 mph    
Max Gust Speed -    
Visibility 7 miles    
Events Fog    
Averages and records for this station are not official NWS values.
T = Trace of Precipitation, MM = Missing Value Source: NWS Daily Summary

Daily Weather History Graph

Daily Weather History Graph

Search for Another Location

Airport or City:

Trip Planner

Search our weather history database for the weather conditions in past years. The results will help you decide how hot, cold, wet, or windy it might be!

Date:

Astronomy

Aug. 24, 2013 Rise Set
Actual Time 6:09 AM EDT 7:40 PM EDT
Civil Twilight 5:39 AM EDT 8:09 PM EDT
Nautical Twilight 5:03 AM EDT 8:45 PM EDT
Astronomical Twilight 4:25 AM EDT 9:23 PM EDT
Moon 9:25 PM EDT (8/24) 10:12 AM EDT (8/24)
Length of Visible Light 14h 30m
Length of Day
13h 30m
Waning Gibbous, 84% of the Moon is Illuminated
Aug 24
Waning Gibbous
Aug 28
Last Quarter
Sep 5
New
Sep 12
First Quarter
Sep 19
Full

Hourly Weather History & Observations

Time (EDT) Temp. Dew Point Humidity Pressure Visibility Wind Dir Wind Speed Gust Speed Precip Events Conditions
12:52 AM 48.9 °F 46.9 °F 93% 30.21 in 10.0 mi Calm Calm - N/A   Clear
1:52 AM 48.0 °F 46.0 °F 93% 30.22 in 10.0 mi Calm Calm - N/A   Clear
2:13 AM 46.4 °F 44.6 °F 93% 30.22 in 10.0 mi Calm Calm - N/A   Partly Cloudy
2:52 AM 46.9 °F 45.0 °F 93% 30.23 in 8.0 mi Calm Calm - N/A   Clear
3:35 AM 46.4 °F 44.6 °F 93% 30.25 in 9.0 mi Calm Calm - N/A   Scattered Clouds
3:44 AM 46.4 °F 44.6 °F 93% 30.25 in 10.0 mi Calm Calm - N/A   Mostly Cloudy
3:52 AM 46.9 °F 44.1 °F 90% 30.25 in 10.0 mi Calm Calm - N/A   Scattered Clouds
3:57 AM 46.4 °F 44.6 °F 93% 30.25 in 2.0 mi Calm Calm - N/A   Mostly Cloudy
4:00 AM 46.4 °F 44.6 °F 93% 30.25 in 1.0 mi Calm Calm - N/A   Mist
4:08 AM 46.4 °F 44.6 °F 93% 30.26 in 0.2 mi Calm Calm - N/A Fog Fog
4:39 AM 46.4 °F 44.6 °F 93% 30.27 in 0.5 mi Calm Calm - N/A Fog Fog
4:48 AM 46.4 °F 44.6 °F 93% 30.27 in 0.2 mi Calm Calm - N/A Fog Fog
4:52 AM 46.0 °F 45.0 °F 96% 30.28 in 0.2 mi Calm Calm - N/A Fog Fog
5:03 AM 44.6 °F 44.6 °F 100% 30.28 in 0.5 mi Calm Calm - N/A Fog Fog
5:11 AM 44.6 °F 44.6 °F 100% 30.28 in 0.2 mi Calm Calm - N/A Fog Fog
5:52 AM 45.0 °F 43.0 °F 93% 30.30 in 0.8 mi Calm Calm - N/A   Mist
6:21 AM 44.6 °F 42.8 °F 93% 30.31 in 0.2 mi Calm Calm - N/A Fog Fog
6:52 AM 45.0 °F 44.1 °F 97% 30.33 in 0.2 mi Calm Calm - N/A Fog Fog
7:18 AM 46.4 °F 44.6 °F 93% 30.33 in 1.0 mi Calm Calm - N/A   Mist
7:21 AM 46.4 °F 44.6 °F 93% 30.33 in 2.5 mi Calm Calm - N/A   Mostly Cloudy
7:25 AM 46.4 °F 46.4 °F 100% 30.33 in 7.0 mi Calm Calm - N/A   Scattered Clouds
7:52 AM 48.9 °F 48.0 °F 97% 30.34 in 10.0 mi Calm Calm - N/A   Partly Cloudy
8:52 AM 53.1 °F 48.0 °F 83% 30.35 in 10.0 mi Calm Calm - N/A   Clear
9:52 AM 61.0 °F 46.9 °F 60% 30.34 in 10.0 mi Calm Calm - N/A   Clear
10:52 AM 66.9 °F 48.0 °F 51% 30.33 in 10.0 mi Calm Calm - N/A   Clear
11:52 AM 69.1 °F 42.1 °F 38% 30.33 in 10.0 mi Calm Calm - N/A   Clear
12:52 PM 72.0 °F 44.1 °F 37% 30.32 in 10.0 mi North 5.8 mph - N/A   Clear
1:52 PM 73.9 °F 46.0 °F 37% 30.32 in 10.0 mi Calm Calm - N/A   Clear
2:52 PM 75.0 °F 48.0 °F 38% 30.31 in 10.0 mi Variable 3.5 mph - N/A   Clear
3:52 PM 75.0 °F 46.9 °F 37% 30.30 in 10.0 mi Calm Calm - N/A   Clear
4:52 PM 75.9 °F 48.9 °F 38% 30.30 in 10.0 mi Variable 3.5 mph - N/A   Clear
5:52 PM 73.0 °F 48.9 °F 42% 30.30 in 10.0 mi Variable 3.5 mph - N/A   Clear
6:52 PM 71.1 °F 50.0 °F 47% 30.30 in 10.0 mi Calm Calm - N/A   Clear
7:52 PM 63.0 °F 57.0 °F 81% 30.32 in 10.0 mi Calm Calm - N/A   Clear
8:52 PM 57.9 °F 55.0 °F 90% 30.35 in 10.0 mi Calm Calm - N/A   Clear
9:52 PM 55.9 °F 53.1 °F 90% 30.37 in 10.0 mi Calm Calm - N/A   Clear
10:52 PM 54.0 °F 51.1 °F 90% 30.38 in 10.0 mi Calm Calm - N/A   Clear
11:52 PM 52.0 °F 50.0 °F 93% 30.38 in 10.0 mi Calm Calm - N/A   Clear